Location: Braslou
(47.0002°N, 0.3923°E)
Time: 05:48:38
(UTC+00:00)

Daily predictions for brighter satellites

Satellite Brightness Start Highest point End
(mag) Time Altitude Azimuth Time Altitude Azimuth Time Altitude Azimuth
SL-16 R/B 4.4 00:59:05 25° NNE 00:59:05 25° NNE 01:02:00 10° N
ADEOS II 4.3 01:34:38 10° NNE 01:36:36 21° NE 01:36:36 21° NE
Cosmos 2123 Rocket 4.5 02:18:54 10° N 02:24:57 56° ENE 02:24:57 56° ENE
CZ-2D R/B 3.8 02:24:05 10° N 02:26:24 25° N 02:26:24 25° N
Resurs 1-4 Rocket 3.9 02:25:29 10° N 02:27:37 23° N 02:27:37 23° N
Cosmos 1934 Rocket 4.3 02:35:19 60° E 02:35:29 60° E 02:41:43 10° NNE
SL-16 R/B 4.3 02:44:11 18° NW 02:44:11 18° NW 02:45:49 10° NNW
IDEFIX/ARIANE 42P 3.8 02:46:42 10° N 02:49:43 33° NNW 02:49:43 33° NNW
Cosmos 1980 Rocket 4.2 02:49:23 10° N 02:54:05 27° NE 02:58:45 10° ESE
MSX 4.3 02:53:14 10° N 02:57:46 52° NNW 02:57:46 52° NNW
BREEZE-M DEB (TANK) 4.1 03:08:22 39° SSE 03:08:22 39° SSE 03:16:05 10° SE
CBERS-1 4.4 03:02:58 10° NNE 03:08:03 59° ESE 03:08:37 56° SE
IRS-1D 3.6 03:05:24 10° NNE 03:10:11 71° N 03:10:11 71° N
Cosmos 1190 Rocket 4.5 03:06:29 10° NNW 03:11:38 58° ENE 03:16:46 10° SE
ATLAS CENTAUR R/B 3.3 03:12:27 25° SE 03:13:37 28° ESE 03:17:46 10° ENE
Cosmos 1633 Rocket 4.5 03:10:11 10° N 03:14:14 36° ENE 03:18:15 10° SE
ADEOS II 3.5 03:14:32 10° N 03:17:30 26° NNW 03:17:30 26° NNW
Cosmos 407 Rocket 4.0 03:16:17 10° NNW 03:27:30 - SSE 03:20:08 49° NNW
Atlas Centaur 2 4.2 03:21:38 23° S 03:21:43 23° S 03:27:29 10° SE
ATLAS 5 CENTAUR R/B 4.1 03:22:01 10° NNW 03:23:06 11° N 03:24:29 10° N
Cosmos 1666 Rocket 4.0 03:22:26 10° N 03:26:53 60° ENE 03:30:03 18° SSE
Meteor 1-14 Rocket 4.2 03:23:24 10° NNW 03:29:18 69° W 03:30:17 58° SSW
USA 307 3.2 03:32:44 60° ESE 03:32:44 60° ESE 03:36:31 10° ENE
Cosmos 1833 Rocket 2.7 03:32:50 48° S 03:34:28 79° ESE 03:40:09 10° NNE
CZ-2C R/B 2.5 03:30:50 10° NNE 03:35:52 76° ESE 03:37:31 42° S
Cosmos 2360 4.1 03:32:33 10° NNW 03:38:18 88° WSW 03:44:00 10° SSE
Cosmos 1151 Rocket 2.8 03:39:15 83° SSE 03:39:24 87° E 03:43:42 10° N
FENGYUN 3A 3.5 03:35:16 10° N 03:40:38 70° WNW 03:41:44 54° SW
Meteor 1-11 Rocket 4.0 03:37:34 10° N 03:43:35 74° ENE 03:49:31 10° SSE
USA 306 2.7 03:44:56 88° S 03:44:57 88° SSE 03:49:06 10° ENE
ARIANE 5 R/B 2.9 03:45:03 10° NNE 03:50:03 60° ESE 03:54:46 11° S
Cosmos 2082 Rocket 3.2 03:46:11 10° S 03:51:28 44° ESE 03:56:46 10° NE
Cosmos 1153 Rocket 4.4 03:46:36 13° S 03:52:14 86° E 03:58:29 10° N
Lacrosse 4 Rocket 4.3 03:50:15 10° N 03:53:12 17° NE 03:56:10 10° E
RUBIN 8/PSLV 4.4 03:50:45 10° N 03:55:05 75° WNW 03:56:08 50° SW
ALOS 2.3 03:51:00 10° N 03:55:35 57° WNW 03:56:17 51° WSW
Cosmos 1470 Rocket 4.0 03:53:48 10° N 03:58:07 63° ENE 04:02:25 10° SSE
Cosmos 1697 Rocket 2.6 03:52:59 10° NNW 03:58:36 64° WSW 04:04:10 10° SSE
COSMOS 2406 3.5 03:55:00 18° S 03:59:14 66° ESE 04:04:52 10° NNE
H-2A ROCKET BODY 4.4 03:57:07 12° SSW 03:59:57 16° SSE 04:06:39 10° SE
METEOR-M 4.1 03:55:33 10° NNE 04:00:57 90° E 04:05:23 15° SSW
Helios 1B rocket 2.2 03:57:37 10° NNE 04:01:42 79° WNW 04:03:02 41° SSW
Cosmos 676 Rocket 3.9 03:56:40 10° NNW 04:01:56 89° WSW 04:07:11 10° SSE
Cosmos 1356 4.0 04:02:58 41° NNW 04:02:58 41° NNW 04:05:20 10° N
Cosmos 1447 Rocket 4.4 03:57:06 10° NNW 04:03:20 63° W 04:09:29 10° S
IRS-P3 4.1 04:00:15 10° NNE 04:05:38 85° ESE 04:10:58 10° SSW
ERBS 3.4 04:06:51 28° N 04:06:51 28° N 04:08:58 10° NE
CZ-2D R/B 3.7 04:02:35 10° NNE 04:06:31 63° E 04:10:29 10° S
USA 308 2.7 04:06:20 51° WSW 04:07:17 80° NNW 04:11:27 10° ENE
CZ-2C R/B 2.5 04:02:17 10° SSE 04:07:30 84° WSW 04:12:51 10° NNW
BREEZE-M DEB (TANK) 1.6 04:07:53 65° NNW 04:07:57 65° N 04:11:31 10° ENE
Cosmos 1743 2.5 04:04:41 10° NNW 04:08:29 78° W 04:12:16 10° S
Cosmos 1624 Rocket 3.9 04:06:30 29° SW 04:09:17 73° WNW 04:14:39 10° NNE
Meteor 2-6 Rocket 4.5 04:10:13 33° WSW 04:11:55 43° WNW 04:17:09 10° N
Cosmos 1441 Rocket 3.0 04:12:33 28° SSW 04:14:25 83° WNW 04:18:11 10° N
Cosmos 1536 2.7 04:10:32 10° NNW 04:14:34 69° W 04:18:35 10° S
Envisat 3.5 04:11:36 10° NNE 04:16:40 62° E 04:21:41 10° S
Meteor 1-4 Rocket 2.4 04:14:07 10° NNW 04:17:43 66° W 04:21:20 10° S
Cosmos 1371 Rocket 4.2 04:20:34 26° SW 04:23:21 52° WNW 04:28:29 10° NNE
Cosmos 1346 Rocket 3.0 04:22:51 32° SW 04:24:14 46° WNW 04:28:05 10° N
CZ-2C R/B 4.5 04:21:21 10° NNE 04:24:49 34° E 04:28:19 10° SSE
Cosmos 2322 Rocket 4.2 04:23:56 10° N 04:28:50 28° NE 04:33:40 10° ESE
COSMO-SKYMED 1 4.3 04:26:02 10° SE 04:30:00 36° ENE 04:33:59 10° N
H-2A R/B 3.3 04:31:10 10° NNE 04:34:46 57° E 04:38:22 10° S
Cosmos 1459 Rocket 4.0 04:28:30 10° SSW 04:34:51 80° W 04:41:17 10° N
SL-08 R/B 3.2 04:30:33 10° S 04:35:09 63° WSW 04:39:53 10° NNW
USA 305 3.3 04:33:26 25° W 04:35:29 49° NNW 04:39:32 10° NE
DELTA 2 DEB (DPAF) 4.3 04:32:10 10° S 04:36:25 48° W 04:40:43 10° NNW
CENTAUR R/B 3.0 04:32:33 10° SSW 04:38:09 59° ESE 04:44:59 10° NE
Cosmos 1980 Rocket 2.1 04:32:58 10° NNW 04:38:30 61° WSW 04:43:59 10° S
Meteor 2-9 Rocket 4.2 04:35:28 10° NNW 04:41:17 87° W 04:46:54 10° S
Meteor 1-29 2.7 04:38:13 10° NNE 04:41:32 82° WNW 04:44:50 10° SSW
Cosmos 1802 Rocket 4.0 04:36:32 10° S 04:42:56 86° W 04:49:18 10° N
X-37B 0.5 04:42:04 29° WSW 04:43:16 58° S 04:46:07 10° ESE
Meteor 1-27 Rocket 3.9 04:38:34 10° SSW 04:44:14 56° WNW 04:50:02 10° N
CZ-2C R/B 3.4 04:38:45 10° NNE 04:44:35 85° ESE 04:50:10 10° SSW
Cosmos 2346 Rocket 4.5 04:38:58 10° NNW 04:44:53 56° W 04:50:48 10° SSW
Cosmos 2369 3.8 04:39:32 10° NW 04:45:01 51° WSW 04:50:27 10° S
Cosmos 1850 Rocket 4.1 04:41:34 10° NNW 04:46:56 89° ENE 04:52:17 10° SSE
YAOGAN 6 2.8 04:46:42 10° N 04:50:13 47° WNW 04:53:41 10° SSW
Cosmos 1633 Rocket 4.2 04:48:25 10° NW 04:51:47 22° W 04:55:08 10° SW
ATLAS CENTAUR R/B 2.1 04:48:27 16° WSW 04:52:10 50° NW 04:56:54 10° NNE
Cosmos 2278 3.7 04:46:57 10° NNW 04:52:39 84° WSW 04:58:17 10° SSE
Cosmos 1725 Rocket 4.1 04:46:30 10° S 04:52:49 87° E 04:59:12 10° N
Cosmos 2056 Rocket 4.2 04:50:12 16° WSW 04:53:41 32° WNW 04:58:17 10° N
CZ-4C R/B 3.4 04:51:06 10° S 04:55:12 66° WSW 04:59:31 10° NNW
SL-16 R/B 3.0 04:50:35 10° NNW 04:56:11 55° ENE 05:01:44 10° SE
NOSS 3-2 (A) 3.4 04:53:02 10° SSW 04:58:27 79° SE 05:04:49 10° NE
Okean 1 3.4 04:55:23 10° SSW 04:59:22 58° WNW 05:03:22 10° N
BREEZE-M DEB (TANK) 3.0 04:59:06 15° W 05:01:24 48° SSW 05:08:47 10° SE
Cosmos 44 Rocket 3.3 04:57:41 10° SW 05:02:20 60° NW 05:07:01 10° NNE
NOAA 11 4.3 04:56:52 10° NNE 05:02:24 86° ESE 05:07:52 10° SSW
Cosmos 1933 Rocket 3.8 04:58:54 10° NNW 05:03:10 46° W 05:07:22 10° SSW
Cosmos 1461 3.2 05:00:04 10° SSW 05:04:01 65° ESE 05:08:09 10° NE
Cosmos 2173 Rocket 4.2 04:59:55 10° SSW 05:05:46 46° WNW 05:11:37 10° N
GP-B 3.3 05:03:56 10° SSW 05:08:12 47° W 05:12:30 10° NNW
Cosmos 1484 Rocket 3.8 05:05:03 10° N 05:08:27 28° WNW 05:11:50 10° SW
ATLAS 5 CENTAUR R/B 4.2 05:07:03 10° NNW 05:09:44 14° NNE 05:12:39 10° NE
Atlas Centaur 2 4.4 05:04:58 10° SW 05:09:54 18° SSW 05:14:25 10° SSE
USA 238 DEB 4.5 05:05:45 10° SSW 05:11:54 53° ESE 05:18:28 10° NE
USA 307 3.6 05:08:19 12° W 05:11:59 40° NNW 05:15:56 10° NE
USA 238 4.5 05:05:52 10° SSW 05:12:02 53° ESE 05:18:34 10° NE
Spot 4 Rocket 4.2 05:07:08 10° N 05:12:09 54° WNW 05:17:06 10° SW
SJ-6F 4.4 05:08:07 10° N 05:12:18 77° WNW 05:16:25 10° SSW
CZ-2C R/B 4.0 05:10:16 10° NNW 05:13:26 17° WNW 05:16:33 10° W
PSLV R/B 3.5 05:09:35 10° N 05:13:55 65° WNW 05:18:09 10° SSW
Cosmos 1741 Rocket 4.1 05:10:19 10° NNW 05:15:26 56° WSW 05:20:31 10° S
Meteor 1-31 Rocket 4.5 05:13:37 10° NNE 05:17:12 38° E 05:20:47 10° SSE
SKYMED 2 3.5 05:13:37 10° S 05:17:57 76° WSW 05:22:19 10° NNW
Cosmos 1833 Rocket 4.0 05:14:43 10° W 05:19:03 22° NW 05:23:26 10° N
CZ-4B R/B 3.7 05:15:23 10° NNE 05:20:38 88° ESE 05:25:55 10° SSW
SL-24 R/B - RUBIN 2 3.8 05:17:30 10° SSW 05:21:56 72° SE 05:26:17 10° NE
Cosmos 2333 Rocket 4.1 05:17:20 10° NNW 05:22:22 31° NE 05:27:21 10° ESE
Cosmos 1975 2.8 05:19:48 10° NNW 05:23:46 63° W 05:27:40 10° S
USA 306 3.8 05:20:52 10° W 05:24:40 35° NNW 05:28:30 10° NE
SJ-12 3.9 05:21:17 10° N 05:25:21 71° WNW 05:29:25 10° SSW
Cosmos 2219 Rocket 4.4 05:22:19 10° N 05:26:57 25° NE 05:31:32 10° ESE
Cosmos 2228 Rocket 3.1 05:22:53 10° SSW 05:27:22 77° W 05:31:51 10° N
CZ-3 R/B 4.0 05:13:07 10° WSW 05:27:51 26° SSW 05:33:56 10° SE
ARIANE 5 R/B 3.8 05:25:01 10° NNW 05:28:43 21° WNW 05:32:23 10° WSW
DELTA 2 R/B (1) 4.5 05:24:27 10° WSW 05:29:38 39° S 05:34:47 10° ESE
BREEZE M DEB (TANK) 4.0 05:17:07 10° W 05:33:22 78° N 05:37:26 10° E
